Home > Weather > Oberlin > Past weeks

Flag for U.S.A. Weather for the Past 2 Weeks in Oberlin, Ohio, U.S.A.

Now
5 °F

Ice fog.


Feels Like: 5 °F
Forecast: 2 / 19 °F
Wind: No wind

Location: Lorain County Regional Airport

Current Time: Feb 14, 2016 at 1:29:53 AM

Latest Report: Feb 14, 2016 at 1:04 AM


Visibility: 2 mi

Pressure: 30.45 "Hg

Humidity: 87%

Dew point: 2 °F

Location of OberlinLocation

Historic Weather in Oberlin — Graph

°F

Oberlin Temperature Yesterday

Maximum temperature yesterday: 14 °F (at 3:53 PM)
Minimum temperature yesterday: 7 °F (at 5:53 AM)
Average temperature yesterday: 10 °F

High & Low Weather Summary for the Past Weeks

 TemperatureHumidityPressure
High60 °F (Feb 3, 10:53 AM)100% (Feb 8, 10:53 AM)30.51 "Hg (Feb 8, 10:53 AM)
Low6 °F (Feb 11, 10:53 PM)39% (Feb 2, 2:53 PM)29.50 "Hg (Feb 3, 5:53 AM)
Average31 °F71%29.99 "Hg
* Reported Jan 29 11:53 PM — Feb 13 11:53 PM, Oberlin, Weather by CustomWeather, © 2016

Note: Actual official high and low records may vary slightly from our data, if they occured in-between our weather recording intervals... More about our weather records

Advertising

Oberlin Weather History for the Previous 24 Hours

 ConditionsComfort  
Time TempWeatherWind HumidityBarometerVisibility
11:53 PM
Sat, Feb 13
8 °FIce fog.No wind83%30.51 "Hg6 mi
11:03 PM10 °FLight snow. Ice fog.No wind84%30.45 "Hg3 mi
10:03 PM9 °FLight snow. Ice fog.3 mph88%30.45 "Hg2 mi
9:53 PM9 °FLight snow. Ice fog.3 mph84%30.50 "Hg3 mi
8:53 PM9 °FLight snow. Ice fog.No wind88%30.50 "Hg5 mi
7:53 PM9 °FLight snow. Overcast.No wind88%30.50 "Hg9 mi
6:53 PM11 °FLight snow. Mostly cloudy.6 mph77%30.50 "Hg4 mi
6:03 PM11 °FLight snow. Ice fog.6 mph84%30.44 "Hg3 mi
5:02 PM12 °FLight snow. Mostly cloudy.10 mph73%30.44 "Hg1 mi
3:53 PM14 °FMore clouds than sun.16 mph51%30.48 "Hg9 mi
2:53 PM12 °FLight snow. Mostly cloudy.15 mph56%30.48 "Hg7 mi
2:00 PM12 °FLight snow. More clouds than sun.17 mph58%30.44 "Hg7 mi
12:58 PM10 °FLight snow. Mostly cloudy.14 mph67%30.44 "Hg1 mi
11:53 AM10 °FMostly cloudy.17 mph61%30.49 "Hg10 mi
10:53 AM10 °FMostly cloudy.15 mph55%30.48 "Hg10 mi
9:53 AM9 °FLight snow. Mostly cloudy.10 mph66%30.47 "Hg5 mi
8:53 AM8 °FScattered clouds.12 mph54%30.45 "Hg10 mi
7:53 AM7 °FOvercast.10 mph57%30.43 "Hg10 mi
6:53 AM7 °FMostly cloudy.16 mph55%30.40 "Hg10 mi
5:53 AM7 °FLight snow. Passing clouds.16 mph52%30.38 "Hg9 mi
4:53 AM8 °FLight snow. Passing clouds.17 mph52%30.35 "Hg9 mi
3:53 AM8 °FPassing clouds.18 mph47%30.33 "Hg10 mi
2:53 AM8 °FPassing clouds.18 mph49%30.30 "Hg10 mi
1:53 AM10 °FLight snow. Passing clouds.21 mph48%30.28 "Hg9 mi
Weather by CustomWeather, © 2016

See weather overviewHow to use our weather pages